Location: Ab? ar R?sh Ba?r?
(24.1861°N, 32.8847°E)
Time: 12:04:19
(UTC+00:00)

Milstar 3 Cent rocket - Pass Details

Date: 05 June 2022
Orbit: 706 x 5146 km, 28.3° (Epoch: 28 June)

Event Time Altitude Azimuth Distance (km) Brightness Sun altitude
Rises 17:54:40 0° 288° (WNW) 9,076 8.9 -16.7°
Reaches altitude 10° 18:02:38 10° 282° (WNW) 7,482 8.0 -18.2°
Maximum altitude 18:22:21 38° 223° (SW) 3,532 5.3 -21.7°
Enters shadow 18:29:46 21° 170° (S) 3,492 4.9 -23.0°
